Regional Weather Roundup
Issued by NWS

Home | Current Version | Previous Version | Text Only | Print | Product List | Glossary On
Versions: 1 2 3 4 5 6 7 8 9 10 11 12 13 14 15 16 17 18 19 20 21 22 23 24 25 26 27 28 29 30 31 32 33 34 35 36 37 38 39 40 41 42 43 44 45 46 47 48 49 50
000
ASUS46 KLOX 241612
RWRCA

SOUTHERN CALIFORNIA WEATHER ROUNDUP
NATIONAL WEATHER SERVICE OXNARD CALIFORNIA
800 AM PST MON NOV 24 2014

NOTE: "FAIR" INDICATES FEW OR NO CLOUDS BELOW 12,000 FEET WITH NO
SIGNIFICANT WEATHER AND/OR OBSTRUCTIONS TO VISIBILITY.

  -  STATIONS PRECEEDED BY AN ASTERISK (*) ARE NOT NWS OR FAA
     STATIONS AND ARE NOT SUBJECT TO NWS AND FAA QUALITY CONTROL.

CAZ041-042-087-241700-
LA AND ORANGE COUNTY COASTAL AREAS


CITY           SKY/WX    TMP DP  RH WIND       PRES   REMARKS
L.A. DOWNTOWN  SUNNY     59  23  25 CALM      30.20R
L.A. AIRPORT   MOSUNNY   63  21  20 NE6       30.20R
LONG BEACH     SUNNY     57  23  26 NW6       30.20R

CITY           SKY/WX    TMP DP  RH WIND       PRES   REMARKS
AVALON           N/A     54 N/A N/A MISG        N/A
FULLERTON      SUNNY     56  34  43 CALM      30.18R
*GETTY CENTER    N/A     63   1   8 N21G33      N/A
HAWTHORNE      SUNNY     62  22  21 NW3       30.20R
*LOS ALAMITOS  PTSUNNY   55  28  35 NW3       30.19R
*REDONDO BEACH   N/A     51  25  37 CALM      30.18R
SANTA ANA      PTSUNNY   60  28  29 CALM      30.18R
STA MONICA APT SUNNY     65  19  17 VRB6      30.20R
TORRANCE       MOSUNNY   61  28  29 SW9       30.21R
*UCLA            N/A     64  16  15 N6        30.17R

$$

CAZ547-548-048-241700-
LA COUNTY VALLEYS AND INLAND EMPIRE


CITY           SKY/WX    TMP DP  RH WIND       PRES   REMARKS
BURBANK        SUNNY     57  19  22 CALM      30.20R
VAN NUYS       SUNNY     62  15  16 N18       30.21R

CITY           SKY/WX    TMP DP  RH WIND       PRES   REMARKS
CORONA AIRPORT SUNNY     62  13  15 E3        30.23R
*CHATSWORTH      N/A     60  26  27 N17       30.20R
CHINO          MOSUNNY   52  32  46 VRB6      30.23R
MARCH AFB      SUNNY     58  11  15 N7        30.24R
*NORTHRIDGE      N/A     63  12  14 NW7G16      N/A
ONTARIO        PTSUNNY   56  23  27 E3        30.22R
RIVERSIDE      PTSUNNY   52  21  29 NE5       30.24R
SAN BERNARDINO MOSUNNY   50  18  27 NE3       30.24R
*SAN GABRIEL     N/A     54  24  32 CALM      30.18
*WHITEMAN AP   SUNNY     63  14  15 SW6       30.24
*WOODLAND HILL   N/A     63  18  17 N9          N/A

$$

CAZ054-055-241700-
LA AND SAN BERNARDINO COUNTY MOUNTAINS


CITY           SKY/WX    TMP DP  RH WIND       PRES   REMARKS
*BIG BEAR AIRP SUNNY     27   9  46 E5        30.38R WCI  21
MT WILSON NWS    N/A     46   9  21 MISG        N/A
SANDBERG       SUNNY     47  19  33 NE12      30.33R
*WARM SPRINGS    N/A     47  18  31 N14         N/A

$$

CAZ028-029-059-060-099-241700-
ANTELOPE VALLEY AND SURROUNDING AREAS


CITY           SKY/WX    TMP DP  RH WIND       PRES   REMARKS
LANCASTER      SUNNY     34  19  54 CALM      30.36R
PALMDALE       SUNNY     40  21  46 CALM      30.35R

CITY           SKY/WX    TMP DP  RH WIND       PRES   REMARKS
29 PALMS       SUNNY     43  10  26 CALM      30.40R
BARSTOW/DAGGET SUNNY     43   9  24 W7        30.35R
BISHOP         SUNNY     36   7  29 CALM      30.41R
CHINA LAKE     MOSUNNY   39  15  37 CALM      30.36R
EDWARDS AFB    PTSUNNY   32  10  40 E1        30.35R
MOJAVE         FAIR      45  21  39 CALM      30.35R
NEEDLES        SUNNY     56  13  18 NE9       30.31R
VICTORVILLE      N/A     39  10  30 S5        30.34R

$$

CAZ039-040-241700-
VENTURA AND SANTA BARBARA COUNTY COAST


CITY           SKY/WX    TMP DP  RH WIND       PRES   REMARKS
CAMARILLO      SUNNY     66  21  18 NE15      30.21R
NWS OXNARD       N/A     57  24  28 CALM      30.20R
OXNARD AIRPORT SUNNY     61  25  25 NE9       30.21R
*POINT MUGU    MOSUNNY   64  28  25 N7        30.21R
SBA APT/GOLETA SUNNY     54  30  40 NE3       30.21R
*SANTA BARBARA   N/A     51  32  48 CALM      30.28R
*VENTURA         N/A     56  28  35 NE3       30.26R

$$

CAZ044-045-241700-
VENTURA COUNTY VALLEYS


CITY           SKY/WX    TMP DP  RH WIND       PRES   REMARKS
*SIMI VALLEY     N/A     61  25  25 E6        30.23R
*OJAI            N/A     40  31  70 CALM      30.20R
*FILLMORE        N/A     46  31  56 CALM      30.12S

$$

CAZ053-241700-
VENTURA COUNTY MOUNTAINS


CITY           SKY/WX    TMP DP  RH WIND       PRES   REMARKS
*LOCKWOOD VLY    N/A     46   5  18 MISG        N/A
*ROSE VALLEY     N/A     36  18  48 MISG        N/A

$$

CAZ034-035-036-241700-
CENTRAL COAST AND SANTA YNEZ VALLEY


CITY           SKY/WX    TMP DP  RH WIND       PRES   REMARKS
SAN LUIS OBISP SUNNY     57  33  40 CALM      30.28R
SANTA MARIA    SUNNY     62  33  33 N10       30.27R

CITY           SKY/WX    TMP DP  RH WIND       PRES   REMARKS
*CAL POLY SLO    N/A     57  36  44 W9          N/A
*LOMPOC        SUNNY     45  27  49 E3        30.27R
*PISMO BEACH     N/A     58  34  40 NE1       30.29R
*SANTA YNEZ    FAIR      41  28  60 CALM      30.27R

$$

CAZ037-038-051-241700-
SAN LUIS OBISPO COUNTY INTERIOR AND CUYAMA VALLEY


CITY           SKY/WX    TMP DP  RH WIND       PRES   REMARKS
*CUYAMA          N/A     42  33  69 SE3       30.34R
PASO ROBLES    SUNNY     39  31  72 CALM      30.35R

$$

CAZ032-033-061-241700-
SOUTHERN DESERTS


CITY           SKY/WX    TMP DP  RH WIND       PRES   REMARKS
BLYTHE         SUNNY     52  13  21 SW6       30.28R
IMPERIAL       SUNNY     50  27  40 SW3       30.26R
PALM SPRINGS   MOSUNNY   58  13  17 NW6       30.29R
THERMAL        SUNNY     50  26  39 CALM      30.26R

$$

ELSEWHERE ACROSS THE WESTERN UNITED STATES AND MEXICO


CITY           SKY/WX    TMP DP  RH WIND       PRES   REMARKS
DENVER, CO     CLOUDY    36   9  32 W16       29.91R WCI  26
GRAND CANYON,  SUNNY     29   4  34 CALM      30.28R
HONOLULU, HI   PTCLDY    73  70  88 CALM      29.85S
KAHULUI, MAUI  PTCLDY    75  66  73 S15G22    29.88R
LAKE TAHOE, CA SUNNY     25  19  78 CALM      30.43R
LAS VEGAS, NV  MOSUNNY   46  11  24 SW6       30.32R
MAMMOTH LAKES, FAIR      28   9  43 W9        30.43R WCI  20
MEXICO CITY, M PTSUNNY   64  46  52 SE3       30.32S
PHOENIX, AZ    MOSUNNY   53  16  23 E5        30.22R
PORTLAND, OR   CLOUDY    47  47 100 CALM      30.38S
RENO, NV       PTSUNNY   26  22  84 CALM      30.49R
SALT LAKE CITY MOSUNNY   38  26  62 N12       30.29R WCI  30
SAN DIEGO, CA  PTSUNNY   57  28  33 CALM      30.21R
SAN FRANCISCO, PTCLDY    53  48  83 CALM      30.39R
SAN JOSE, CA   MOSUNNY   43  39  86 CALM      30.38R
SEATTLE, WA    CLOUDY    40  33  76 S8        30.34F WCI  34
TIJUANA, MEX   MOSUNNY   66   7   9 E9        30.21R

$$

STATION/POSITION TIME  TEMP    WIND        PRES    VSBY  WAVE
                       AIR SEA DIR/SP/G                  HT/PER
                 (UTC) (F)     (DEG/KT/KT) (MB)    (MI)  (FT/S)
POINT ARGUELLO B NOT AVBL
WEST SANTA BARBA 1600   62 62  340/ 19/ 21 1022.3R         7/14
POINT CONCEPTION NOT AVBL
EAST SANTA BARBA 1500   65 64   CALM  /  2 1022.0R
SANTA MONICA BAY 1600   67 66   30/  4/  6 1022.5R         4/15


USA.gov is the U.S. government's official web portal to all federal, state and local government web resources and services.